ONEWEB-0034, 45454

Orbit data source: Space-Track

ONEWEB-0034, 45454 is a payload satellite owned by One Web (UK) in LEO that was launched on Sat, 21 Mar 2020 UTC via a SOYUZ-2-1B launch vehicle from the Tyuratam Missile And Space Complex (TTMTR). Payload-class satellites include a variety of spacecraft equipped with specific instruments for various scientific and technological missions. These include communications satellites like Starlink; space stations such as the ISS; scientific satellites like the Hubble; Earth observation satellites from companies like Planet Labs, Umbra, and HawkEye 360; GPS; miniature CubeSats for education and research; and military/defense satellites.

Loading next visibility...
Identifier
45454, 2020-020AG
Orbit
LEO
Last TLE update
1 day ago
Origin
Manufacturer
One Web
Mission
Operational Commercial Communications
Bus & Motor
ARROW, Unknown motor
Mass
148 kg wet, ~140 kg dry
Launch date (UTC)
2020-03-21 (5 years ago)
Launch vehicle
SOYUZ-2-1B
Launch site
Tyuratam Missile And Space Complex (TTMTR)
Object type
Payload
Rocket body
Debris
Shape & HBR
Trap Box + 2 Pan, 5 m
Radar Cross Section
2.957 m², Large (>1 m²)

Expand to show TLE details & history

TLE from 1 day ago
0 ONEWEB-0034
1 45454U 20020AG  25166.51950747 -.00000428  00000-0 -12427-2 0  9998
2 45454  87.8842  94.1351 0001971  78.8769 281.2581 13.11417728254538
Epoch: 2025-06-15T12:28Z
TLE epoch observation values (Epoch: 2025-06-15T12:28:05.445Z)
Latitude
0.00003°
Longitude
3.06898°
Altitude
1,220.277 km
Speed
7.244 km/s
True Right ascension
06h 16m 32s
True Declination
0° 00' 00"
Sunlit
Object was in daylight at epoch
Visualization orbit readout
Latitude
-84.38832°
Longitude
-19.10945°
Altitude
1,247.747 km
Speed
7.23 km/s
Apparent Right ascension
11h 46m 11s
Apparent Declination
-68° 11' 38"
Sunlit
Object is in daylight
Visualization observer readout
Local Sidereal Time
00:20:10
Azimuth
173.429° S
Elevation
-61.346°
Doppler factor
1
Orbital elements
Apogee altitude
1,216.295 km
Perigee altitude
1,213.301 km
Semi-major axis
7,592.935 km
Eccentricity
0.0002
Inclination
87.8842°
RAAN
94.1351°
Arg. of periapsis
78.8769°
True anomaly
Unknown
Mean anomaly
281.2581°
Eccentric anomaly
Unknown
Mean motion
3.28041 °/min
Orbital period
109.74 mins
BSTAR
-0.0012427
Loading maneuver chart data...
Loading SW <> Apogee altitude chart data...
Loading historical data...
Loading historical data...
Loading historical data...
Loading historical data...
Loading historical data...
Loading historical data...
Loading historical data...

ONEWEB-0034 Visibility forecast

Observer location: undefined°, undefined°

Span
Click to sort rows by Start time (UTC) header in descending order
Start Az.
Max El. time (UTC)
Max El. Az.
Max El.
End time (UTC)
End Az.
8 mins2025-06-16 17:55:19.652Z105.133° ESE2025-06-16 17:59:19.652Z69.906° E16.213°2025-06-16 18:03:19.652Z36.183° NE
13 mins2025-06-16 19:42:19.652Z183.188° SSW2025-06-16 19:48:19.652Z313.054° NW44.552°2025-06-16 19:55:19.652Z359.079° N
4 mins2025-06-16 21:37:19.652Z274.989° WNW2025-06-16 21:39:19.652Z292.257° WNW12.845°2025-06-16 21:41:19.652Z309.129° NW
4 mins2025-06-17 05:25:19.652Z58.637° ENE2025-06-17 05:26:19.652Z67.177° ENE12.519°2025-06-17 05:29:19.652Z92.283° ESE
12 mins2025-06-17 07:12:19.652Z2.966° NNE2025-06-17 07:17:19.652Z46.923° ENE44.353°2025-06-17 07:24:19.652Z176.622° S
7 mins2025-06-17 09:03:19.652Z317.507° NNW2025-06-17 09:06:19.652Z290.801° WNW16.558°2025-06-17 09:10:19.652Z254.996° W
|